Weather History for TIST - November, 2012

Change the Weather History Date:

Monday, November 26, 2012

  Actual Average Record
Temperature  
Mean Temperature 82 °F 80 °F  
Max Temperature 85 °F 86 °F 90 °F (1994)
Min Temperature 78 °F 75 °F 69 °F (1983)
Degree Days  
Heating Degree Days 0 0  
Month to date heating degree days 0 0  
Since 1 July heating degree days 0 0  
Cooling Degree Days 17 16  
Month to date cooling degree days 428 424  
Year to date cooling degree days 5331 5535  
Growing Degree Days 30 (Base 50)    
Moisture  
Dew Point 73 °F    
Average Humidity 77    
Maximum Humidity 85    
Minimum Humidity 69    
Precipitation  
Precipitation 0.00 in 0.14 in 1.83 in (1987)
Month to date precipitation 5.61 4.74  
Year to date precipitation 33.38 35.89  
Sea Level Pressure  
Sea Level Pressure 30.03 in    
Wind  
Wind Speed 13 mph (ENE)    
Max Wind Speed 23 mph    
Max Gust Speed 29 mph    
Visibility 10 miles    
Events      
T = Trace of Precipitation, MM = Missing Value Source: NWS Daily Summary

Daily Weather History Graph

Daily Weather History Graph

Search for Another Location

Airport or City:

Trip Planner

Search our weather history database for the weather conditions in past years. The results will help you decide how hot, cold, wet, or windy it might be!

Date:

Astronomy

Nov. 26, 2012 Rise Set
Actual Time 6:32 AM AST 5:41 PM AST
Civil Twilight 6:09 AM AST 6:05 PM AST
Nautical Twilight 5:42 AM AST 6:31 PM AST
Astronomical Twilight 5:16 AM AST 6:58 PM AST
Moon 4:24 PM AST (11/26) 4:48 AM AST (11/26)
Length of Visible Light 11h 55m
Length of Day
11h 08m
Waxing Gibbous, 97% of the Moon is Illuminated
Nov 26
Waxing Gibbous
Nov 28
Full
Dec 6
Last Quarter
Dec 13
New
Dec 20
First Quarter

Hourly Weather History & Observations

Time (AST) Temp. Heat Index Dew Point Humidity Pressure Visibility Wind Dir Wind Speed Gust Speed Precip Events Conditions
12:53 AM 79.0 °F - 73.9 °F 84% 30.02 in 10.0 mi ENE 9.2 mph - N/A   Partly Cloudy
1:53 AM 79.0 °F - 73.9 °F 84% 30.01 in 10.0 mi ENE 13.8 mph 18.4 mph N/A   Scattered Clouds
2:53 AM 79.0 °F - 73.0 °F 82% 30.00 in 10.0 mi ENE 8.1 mph - N/A   Clear
3:53 AM 79.0 °F - 73.0 °F 82% 29.98 in 10.0 mi ENE 11.5 mph - N/A   Partly Cloudy
4:53 AM 79.0 °F - 73.9 °F 84% 29.99 in 10.0 mi East 10.4 mph - N/A   Mostly Cloudy
5:53 AM 79.0 °F - 73.9 °F 84% 30.01 in 10.0 mi ENE 10.4 mph - N/A   Scattered Clouds
6:53 AM 80.1 °F 84.2 °F 73.0 °F 79% 30.03 in 10.0 mi ENE 10.4 mph - N/A   Partly Cloudy
7:53 AM 80.1 °F 84.5 °F 73.9 °F 81% 30.04 in 10.0 mi ENE 9.2 mph - N/A   Overcast
8:53 AM 82.0 °F 87.4 °F 73.0 °F 74% 30.06 in 10.0 mi NE 13.8 mph - N/A   Mostly Cloudy
9:53 AM 84.0 °F 90.2 °F 73.0 °F 69% 30.07 in 10.0 mi ENE 13.8 mph - N/A   Partly Cloudy
10:53 AM 84.0 °F 91.2 °F 73.9 °F 72% 30.07 in 10.0 mi NE 15.0 mph 24.2 mph N/A   Mostly Cloudy
11:53 AM 84.9 °F 91.4 °F 73.0 °F 67% 30.06 in 10.0 mi NE 17.3 mph 24.2 mph N/A   Clear
12:53 PM 84.0 °F 90.2 °F 73.0 °F 69% 30.04 in 10.0 mi ENE 11.5 mph 23.0 mph N/A   Mostly Cloudy
1:53 PM 84.0 °F 90.2 °F 73.0 °F 69% 30.02 in 10.0 mi NE 18.4 mph 24.2 mph N/A   Clear
2:53 PM 84.0 °F 90.2 °F 73.0 °F 69% 30.00 in 10.0 mi ENE 19.6 mph 26.5 mph N/A   Clear
3:53 PM 82.9 °F 87.5 °F 71.1 °F 67% 30.00 in 10.0 mi NE 13.8 mph 25.3 mph N/A   Partly Cloudy
4:53 PM 81.0 °F 85.2 °F 72.0 °F 74% 30.01 in 10.0 mi NE 15.0 mph 25.3 mph N/A   Scattered Clouds
5:53 PM 80.1 °F 84.2 °F 73.0 °F 79% 30.01 in 10.0 mi ENE 11.5 mph 21.9 mph N/A   Scattered Clouds
6:53 PM 80.1 °F 84.2 °F 73.0 °F 79% 30.03 in 10.0 mi NE 10.4 mph 23.0 mph N/A   Mostly Cloudy
7:53 PM 80.1 °F 84.2 °F 73.0 °F 79% 30.04 in 10.0 mi ENE 11.5 mph 20.7 mph N/A   Mostly Cloudy
8:53 PM 80.1 °F 84.2 °F 73.0 °F 79% 30.06 in 10.0 mi ENE 15.0 mph 24.2 mph N/A   Mostly Cloudy
9:53 PM 80.1 °F 84.2 °F 73.0 °F 79% 30.06 in 10.0 mi ENE 15.0 mph 20.7 mph N/A   Mostly Cloudy
10:53 PM 80.1 °F 84.2 °F 73.0 °F 79% 30.06 in 10.0 mi ENE 13.8 mph - N/A   Partly Cloudy
11:53 PM 79.0 °F - 73.9 °F 84% 30.04 in 10.0 mi ENE 12.7 mph - N/A   Scattered Clouds